E22ZMG-3 Weather Reports


time (UTC)temp
C
wind
direction
speed
KPH
gust
KPH
rain 1hr
cm
rain 24hr
cm
rain mn
cm
humidity
%
barometer
mb
20260505000551 31 0 0.0 0.0 0.00 0.00 0.00 58 979.0
20260504235527 30 0 0.0 0.0 0.00 0.00 0.00 61 979.0
20260504234502 31 0 0.0 0.0 0.00 0.00 0.00 59 978.0
20260504233438 31 0 0.0 0.0 0.00 0.00 0.00 60 978.0
20260504232414 30 0 0.0 0.0 0.00 0.00 0.00 61 978.0
20260504231350 30 0 0.0 0.0 0.00 0.00 0.00 62 978.0
20260504230325 29 0 0.0 0.0 0.00 0.00 0.00 63 978.0
20260504225301 30 0 0.0 0.0 0.00 0.00 0.00 60 978.0
20260504224237 30 0 0.0 0.0 0.00 0.00 0.00 61 977.0
20260504223213 30 0 0.0 0.0 0.00 0.00 0.00 59 977.0
20260504222146 31 0 0.0 0.0 0.00 0.00 0.00 58 977.0
20260504221127 30 0 0.0 0.0 0.00 0.00 0.00 62 977.0
20260504221122 30 0 0.0 0.0 0.00 0.00 0.00 62 977.0
20260504220058 29 0 0.0 0.0 0.00 0.00 0.00 63 977.0
20260504215034 30 0 0.0 0.0 0.00 0.00 0.00 60 977.0
20260504214010 30 0 0.0 0.0 0.00 0.00 0.00 59 977.0
20260504212946 30 0 0.0 0.0 0.00 0.00 0.00 59 977.0
20260504211921 31 0 0.0 0.0 0.00 0.00 0.00 58 977.0
20260504210857 31 0 0.0 0.0 0.00 0.00 0.00 57 977.0
20260504205833 31 0 0.0 0.0 0.00 0.00 0.00 58 977.0
20260504204808 31 0 0.0 0.0 0.00 0.00 0.00 58 977.0
20260504203743 31 0 0.0 0.0 0.00 0.00 0.00 57 977.0
20260504202719 31 0 0.0 0.0 0.00 0.00 0.00 59 978.0
20260504201655 30 0 0.0 0.0 0.00 0.00 0.00 59 978.0
20260504200630 31 0 0.0 0.0 0.00 0.00 0.00 57 978.0
20260504195606 31 0 0.0 0.0 0.00 0.00 0.00 58 978.0
20260504194542 31 0 0.0 0.0 0.00 0.00 0.00 58 978.0
20260504193638 31 0 0.0 0.0 0.00 0.00 0.00 58 978.0
20260504193517 31 0 0.0 0.0 0.00 0.00 0.00 58 978.0
20260504192453 31 0 0.0 0.0 0.00 0.00 0.00 56 978.0
20260504191429 31 0 0.0 0.0 0.00 0.00 0.00 57 978.0
20260504190405 31 0 0.0 0.0 0.00 0.00 0.00 57 978.0
20260504185341 31 0 0.0 0.0 0.00 0.00 0.00 57 978.0
20260504184317 31 0 0.0 0.0 0.00 0.00 0.00 56 978.0
20260504183252 31 0 0.0 0.0 0.00 0.00 0.00 57 978.0
20260504182230 31 0 0.0 0.0 0.00 0.00 0.00 56 978.0
20260504182228 31 0 0.0 0.0 0.00 0.00 0.00 56 978.0
20260504181203 31 0 0.0 0.0 0.00 0.00 0.00 56 978.0
20260504180139 31 0 0.0 0.0 0.00 0.00 0.00 56 978.0
20260504175115 31 0 0.0 0.0 0.00 0.00 0.00 57 978.0
20260504174051 31 0 0.0 0.0 0.00 0.00 0.00 57 979.0
20260504173026 30 0 0.0 0.0 0.00 0.00 0.00 59 979.0
20260504172002 30 0 0.0 0.0 0.00 0.00 0.00 60 978.0
20260504170938 31 0 0.0 0.0 0.00 0.00 0.00 60 978.0
20260504150446 34 0 0.0 0.0 0.00 0.00 0.00 38 976.0
20260504141244 35 0 0.0 0.0 0.00 0.00 0.00 35 975.0
20260504140219 35 0 0.0 0.0 0.00 0.00 0.00 35 975.0
20260504130725 36 0 0.0 0.0 0.00 0.00 0.00 39 974.0
20260504110228 36 0 0.0 0.0 0.00 0.00 0.00 36 972.0
20260504081552 42 0 0.0 0.0 0.00 0.00 0.00 24 973.0
20260504080528 42 0 0.0 0.0 0.00 0.00 0.00 24 973.0
20260504070300 42 0 0.0 0.0 0.00 0.00 0.00 22 974.0
20260504050331 41 0 0.0 0.0 0.00 0.00 0.00 27 976.0
20260504050322 41 0 0.0 0.0 0.00 0.00 0.00 27 976.0
20260504050319 41 0 0.0 0.0 0.00 0.00 0.00 27 976.0
20260504045253 41 0 0.0 0.0 0.00 0.00 0.00 28 977.0
20260504044229 41 0 0.0 0.0 0.00 0.00 0.00 29 977.0
20260504043204 38 0 0.0 0.0 0.00 0.00 0.00 32 977.0
20260504042140 39 0 0.0 0.0 0.00 0.00 0.00 31 977.0
20260504041115 38 0 0.0 0.0 0.00 0.00 0.00 32 977.0
20260504040051 38 0 0.0 0.0 0.00 0.00 0.00 31 977.0
20260504035030 37 0 0.0 0.0 0.00 0.00 0.00 34 977.0
20260504035025 37 0 0.0 0.0 0.00 0.00 0.00 34 977.0
20260504034000 38 0 0.0 0.0 0.00 0.00 0.00 33 977.0
20260504032935 37 0 0.0 0.0 0.00 0.00 0.00 34 977.0
20260504031911 37 0 0.0 0.0 0.00 0.00 0.00 36 978.0
20260504030847 37 0 0.0 0.0 0.00 0.00 0.00 36 978.0
20260504025822 37 0 0.0 0.0 0.00 0.00 0.00 36 978.0
20260504024757 36 0 0.0 0.0 0.00 0.00 0.00 37 978.0
20260504023733 37 0 0.0 0.0 0.00 0.00 0.00 35 978.0
20260504022709 36 0 0.0 0.0 0.00 0.00 0.00 38 978.0
20260504021648 36 0 0.0 0.0 0.00 0.00 0.00
20260504021644 36 0 0.0 0.0 0.00 0.00 0.00 39 978.0
20260504020619 36 0 0.0 0.0 0.00 0.00 0.00 39 978.0
20260504015554 36 0 0.0 0.0 0.00 0.00 0.00 39 978.0
20260504014533 35 0 0.0 0.0 0.00 0.00 0.00 40 978.0
20260504014530 35 0 0.0 0.0 0.00 0.00 0.00 40 978.0
20260504013505 35 0 0.0 0.0 0.00 0.00 0.00 41 978.0
20260504012441 34 0 0.0 0.0 0.00 0.00 0.00 43 978.0
20260504011412 34 0 0.0 0.0 0.00 0.00 0.00 44 978.0
20260504010955 33 0 0.0 0.0 0.00 0.00 0.00 45 978.0
20260504005930 33 0 0.0 0.0 0.00 0.00 0.00 44 978.0
20260504004904 32 0 0.0 0.0 0.00 0.00 0.00 47 977.0
20260504003840 32 0 0.0 0.0 0.00 0.00 0.00 49 977.0
20260504002815 32 0 0.0 0.0 0.00 0.00 0.00 50 977.0
20260504001750 31 0 0.0 0.0 0.00 0.00 0.00 53 977.0